Miscellaneous Local Product
Issued by NWS Hastings, NE

Home | Current Version | Previous Version | Graphics & Text | Print | Product List | Glossary On
Versions: 1 2 3 4 5 6 7 8 9 10 11 12 13 14 15 16 17 18 19 20 21 22 23 24 25 26 27 28 29 30 31 32 33 34 35 36 37 38 39 40 41 42 43 44 45 46 47 48 49 50
859
AXUS43 KGID 280902
MISGRI

GID CWA HOURLY WEATHER ROUNDUP
NATIONAL WEATHER SERVICE HASTINGS NE
400 AM CDT FRI APR 28 2017

NOTE: "FAIR" INDICATES FEW OR NO CLOUDS BELOW 12,000 FEET WITH NO
SIGNIFICANT WEATHER AND/OR OBSTRUCTIONS TO VISIBILITY.

...SOUTH CENTRAL NEBRASKA...

CITY           SKY/WX    TMP DP  RH WIND       PRES   REMARKS
GRAND ISLAND   LGT RAIN  45  44  97 E12       29.69F
HASTINGS       RAIN      46  44  93 E10G21    29.67F FOG
KEARNEY        CLOUDY    45  41  87 E13       29.66F
ORD            LGT RAIN  43  35  73 E15       29.70S
YORK           CLOUDY    48  43  81 E16       29.70F
AURORA         LGT RAIN  46  44  93 E10       29.68F
LEXINGTON      MIX PCPN  44  42  93 E9        29.64F
HOLDREGE       RAIN      44  42  94 E15       29.63S
HEBRON         MIX PCPN  46  45  95 E10G18    29.66F

...NEBRASKA PANHANDLE...

CITY           SKY/WX    TMP DP  RH WIND       PRES   REMARKS
CHADRON        RAIN      38  35  89 E13       29.67S FOG     WCI  30
ALLIANCE       LGT SNOW  33  32  96 E7        29.63S VSB 1   WCI  27
SCOTTSBLUFF    CLOUDY    39  37  92 E14       29.60S WCI  31
SIDNEY         CLOUDY    36  35  96 S9        29.61F WCI  29

...WESTERN AND NORTH CENTRAL NEBRASKA...

CITY           SKY/WX    TMP DP  RH WIND       PRES   REMARKS
VALENTINE      CLOUDY    41  30  65 E13       29.75R
AINSWORTH      CLOUDY    39  33  81 E9        29.74S WCI  32
ONEILL         CLOUDY    38  31  76 E14       29.77S WCI  29
BROKEN BOW     RAIN      44  42  93 E14       29.67S
IMPERIAL       LGT RAIN  42  40  92 E6        29.61R
NORTH PLATTE   RAIN      42  40  92 SE6       29.65S FOG
MCCOOK         LGT RAIN  44  43  96 E13       29.58F FOG

...EASTERN NEBRASKA...

CITY           SKY/WX    TMP DP  RH WIND       PRES   REMARKS
NORFOLK        MOCLDY    39  32  76 NE14      29.77S WCI  31
SO SIOUX CITY  CLOUDY    34  30  85 NE8       29.84R WCI  27
TEKAMAH        CLOUDY    41  33  73 NE8       29.82R
COLUMBUS       CLOUDY    45  34  65 E15       29.74F
ALBION         CLOUDY    43  33  68 E12G18    29.73F
OMAHA EPPLEY   CLOUDY    45  34  65 E5        29.79S
OFFUTT AFB     CLOUDY    47  35  63 NE8       29.77S
MILLARD        CLOUDY    49  37  65 E7        29.78R
LINCOLN        LGT RAIN  50  43  77 E8        29.73F
NEBRASKA CITY  CLOUDY    49  45  86 E7        29.75S
BEATRICE       RAIN      48  47  93 E8G16     29.70F
FALLS CITY     LGT RAIN  49  47  93 NE7       29.73S

...NORTHERN KANSAS...

CITY           SKY/WX    TMP DP  RH WIND       PRES   REMARKS
GOODLAND       CLEAR     36  35  96 W10       29.58S WCI  28
HILL CITY      LGT RAIN  46  46 100 E9        29.59F
NORTON         DRIZZLE   45  39  81 E16       29.58F
PHILLIPSBURG   RAIN      46  46 100 E15G21    29.61F
SMITH CENTER   RAIN      45  45 100 E22       29.61F
HAYS           CLOUDY    47  45  93 E12       29.57F
RUSSELL        CLOUDY    48  46  93 E13       29.57S
CONCORDIA      LGT RAIN  47  46  97 E15G23    29.63F
SALINA         CLOUDY    51  47  86 E9        29.60S
TOPEKA         CLOUDY    51  48  89 E14       29.67F



USA.gov is the U.S. government's official web portal to all federal, state and local government web resources and services.